[[{"header":{"parameterUnit":"m.s-1","parameterCategory":2,"la1":30.2991,"la2":30.254,"lo1":-89.0895,"lo2":-89.0444,"dy":0.0017,"dx":0.0017,"nx":28,"ny":28,"refTime":"2025-11-07T09:00:00:Z","depth":"0","parameterNumber":2,"parameterNumberName":"U-component_of_CURRENTS"},"data":[0,0,0,0,0,0,0,0,0,0,0,0,0,0,0,0,0,0,0,0,0,0,0,0,0,0,0,0,0,0,0,0,0,0,0,0,0,0,0,0,0,0,0,0,0,0,0,0,0,0,0,0,0,0,0,0,0,0,0.184,0.184,0,0.1894,0.1894,0.1895,0.1909,0.1909,0.1909,0.1909,0.1911,0.1912,0.1912,0,0,0,0,0,0,0,0,0,0,0,0,0,0.1747,0.1749,0.1839,0.184,0.1841,0.1893,0.1894,0.1895,0.1909,0.1909,0.1909,0.1908,0.1911,0.1912,0.1912,0,0,0,0,0,0,0,0,0,0,0,0,0,0.1792,0.1749,0.1839,0.1855,0.1857,0.1893,0.1894,0.1895,0.1909,0.1909,0.1909,0.1908,0.1911,0.1912,0.1912,0.1921,0,0,0.1913,0.1914,0,0,0,0,0,0,0,0,0.1789,0.1795,0.1852,0.1854,0.1857,0.1895,0.1863,0.1902,0.1909,0.1888,0.1909,0.1908,0.1902,0.1903,0.1913,0.1921,0.1921,0.1913,0.1914,0.1914,0.1914,0,0,0,0,0,0,0,0.1786,0.1793,0.186,0.1853,0.1856,0.1859,0.1865,0.187,0.1895,0.189,0.1892,0.19,0.1903,0.1913,0.1913,0.1921,0.1913,0.1914,0.1914,0.1914,0.1966,0.1967,0,0,0,0,0,0,0.1782,0.179,0.1858,0.1861,0.1823,0.1861,0.1868,0.1882,0.1896,0.1898,0.19,0.19,0.1913,0.1913,0.1914,0.1943,0.1914,0.1914,0.1914,0.1965,0.1966,0.1967,0,0,0,0,0,0,0.178,0.1788,0.1856,0.1827,0.1836,0.1863,0.1879,0.1884,0.1897,0.1904,0.1905,0.1909,0.1912,0.1913,0.1929,0.1942,0.1914,0.1915,0.1964,0.1965,0.1967,0.199,0,0,0,0,0,0,0.1778,0.1787,0.1793,0.1827,0.1838,0.1881,0.188,0.1885,0.1902,0.1903,0.1912,0.1912,0.1912,0.1929,0.193,0.1942,0.1915,0.1962,0.1964,0.1966,0.1988,0.1992,0.1996,0,0,0,0,0,0.1774,0.1784,0.1793,0.1801,0.1846,0.1881,0.1887,0.1904,0.1903,0.1913,0.1923,0.1912,0.1943,0.193,0.1931,0.1944,0.1961,0.1964,0.1966,0.1986,0.1991,0.1996,0,0,0,0,0,0,0.1739,0.1787,0.1798,0.182,0.185,0.1884,0.1893,0.1907,0.1924,0.1922,0.1925,0.1926,0.1946,0.1945,0.1931,0.1967,0.1951,0.1954,0.1966,0.1971,0.1975,0.1955,0.1915,0,0,0,0,0,0.1737,0.1759,0.1802,0.1817,0.1834,0.1864,0.1879,0.1895,0.1916,0.1923,0.193,0.1941,0.1958,0.1963,0.1975,0.1991,0.2023,0.2002,0.2006,0.201,0.1996,0.2022,0.2026,0.1976,0.1976,0.1976,0,0,0.1724,0.1755,0.1765,0.1812,0.1834,0.1862,0.1872,0.1899,0.1918,0.192,0.194,0.1954,0.1967,0.1991,0.1999,0.1989,0.2063,0.2013,0.2016,0.1999,0.2025,0.2029,0.2034,0.1977,0.1977,0.1977,0,0,0.1714,0.1742,0.1759,0.179,0.1833,0.1857,0.1866,0.1906,0.192,0.1947,0.1957,0.1977,0.1999,0.2013,0.2023,0.2056,0.2084,0.2065,0.2065,0.2092,0.2096,0.2099,0.2239,0.2254,0.2065,0.2065,0.2065,0,0.1694,0.1728,0.1767,0.1795,0.1816,0.1855,0.1876,0.1903,0.1941,0.195,0.1954,0.1996,0.2008,0.2037,0.2053,0.2063,0.2116,0.2044,0.2096,0.2099,0.2102,0.2243,0.226,0.2066,0.2066,0.2066,0.2066,0,0.1705,0.173,0.1743,0.1794,0.1821,0.1847,0.1893,0.1916,0.1937,0.196,0.1991,0.2016,0.2036,0.2054,0.2063,0.2095,0.2148,0.21,0.2079,0.2108,0.2257,0.2274,0.2068,0.2068,0.2067,0.2067,0,0,0.1663,0.1735,0.1739,0.1758,0.1823,0.1844,0.1882,0.1922,0.1945,0.1976,0.2006,0.2036,0.2047,0.2058,0.2078,0.2101,0.2208,0.2109,0.211,0.2243,0.2357,0.2486,0.2518,0.216,0.216,0.2161,0.2486,0,0.1657,0.1698,0.1739,0.1771,0.1796,0.1843,0.1874,0.1915,0.1956,0.1999,0.2025,0.2069,0.2052,0.2081,0.2093,0.2181,0.2238,0.213,0.2311,0.2318,0.2422,0.2534,0.2548,0.2843,0.2503,0.2506,0.2508,0,0.1656,0.1685,0.1714,0.1763,0.1777,0.1799,0.1854,0.189,0.196,0.1996,0.2031,0.2072,0.2145,0.2108,0.2256,0.219,0.2268,0.2328,0.2341,0.2449,0.2475,0.274,0.2886,0.2816,0.2534,0.2532,0.253,0,0.1614,0.1665,0.1683,0.1703,0.1767,0.1779,0.1811,0.1878,0.1934,0.2007,0.2085,0.2127,0.2234,0.2264,0.2432,0.2337,0.2629,0.251,0.2711,0.2727,0.2766,0.2782,0.2848,0.2589,0.2588,0.2587,0.2586,0,0.1602,0.1615,0.1661,0.1674,0.1693,0.1745,0.1787,0.1831,0.1931,0.2029,0.2082,0.2208,0.2271,0.2455,0.2497,0.2737,0.2697,0.2756,0.2808,0.279,0.2803,0.2762,0.2687,0.2599,0.2597,0.2594,0.2592,0,0.1569,0.1601,0.1623,0.1668,0.168,0.1695,0.179,0.1841,0.1944,0.2089,0.2135,0.2339,0.2582,0.2717,0.2885,0.2912,0.3014,0.314,0.3191,0.3239,0.3261,0.3188,0.3204,0.3081,0.3368,0.3373,0.3377,0,0.1558,0.1566,0.1607,0.1621,0.1642,0.168,0.1726,0.1827,0.1918,0.2185,0.2278,0.2577,0.2775,0.3153,0.3281,0.347,0.3275,0.3582,0.3344,0.3315,0.327,0.3062,0.2935,0.3462,0.3467,0.347,0.3473,0,0.1534,0.1547,0.1566,0.16,0.1638,0.1695,0.1778,0.1843,0.2012,0.2166,0.2426,0.2606,0.3048,0.3282,0.3601,0.3682,0.3431,0.3662,0.3575,0.3321,0.315,0.3042,0.3272,0.3506,0.3503,0.35,0.3499,0.3497,0.1508,0.1521,0.1551,0.1586,0.1627,0.1699,0.1714,0.1849,0.1991,0.2206,0.2446,0.2709,0.3199,0.3629,0.3704,0.3898,0.3674,0.3798,0.3725,0.3527,0.3336,0.3709,0.4007,0.4007,0.4006,0.4006,0.4006,0,0.1497,0.1526,0.1543,0.1578,0.1603,0.1653,0.1747,0.1766,0.189,0.2171,0.238,0.2908,0.329,0.3633,0.4033,0.3966,0.3698,0.3885,0.354,0.3407,0.3741,0.3669,0.3974,0.3974,0.3974,0.3974,0.3974,0.3974,0.1494,0.1516,0.1536,0.1556,0.1571,0.158,0.1608,0.1661,0.1811,0.2095,0.2383,0.2666,0.3291,0.3923,0.4115,0.4021,0.3612,0.3578,0.3392,0.361,0.3592,0.3573,0.3486,0.3747,0.3746,0.2945,0.2939,0.2935]},{"header":{"parameterUnit":"m.s-1","parameterCategory":2,"la1":30.2991,"la2":30.254,"lo1":-89.0895,"lo2":-89.0444,"dy":0.0017,"dx":0.0017,"nx":28,"ny":28,"refTime":"2025-11-07T09:00:00:Z","depth":"0","parameterNumber":3,"parameterNumberName":"V-component_of_CURRENTS"},"data":[0,0,0,0,0,0,0,0,0,0,0,0,0,0,0,0,0,0,0,0,0,0,0,0,0,0,0,0,0,0,0,0,0,0,0,0,0,0,0,0,0,0,0,0,0,0,0,0,0,0,0,0,0,0,0,0,0,0,-0.0304,-0.0304,0,-0.0354,-0.0354,-0.0355,-0.0398,-0.0399,-0.0399,-0.04,-0.0491,-0.0493,-0.0495,0,0,0,0,0,0,0,0,0,0,0,0,0,-0.0279,-0.0279,-0.0304,-0.0304,-0.0305,-0.0354,-0.0354,-0.0355,-0.0398,-0.0399,-0.0399,-0.04,-0.049,-0.0492,-0.0495,0,0,0,0,0,0,0,0,0,0,0,0,0,-0.0306,-0.0279,-0.0303,-0.0331,-0.0334,-0.0353,-0.0354,-0.0355,-0.0398,-0.0399,-0.0399,-0.04,-0.0489,-0.0492,-0.0495,-0.0502,0,0,-0.0505,-0.0506,0,0,0,0,0,0,0,0,-0.0305,-0.0307,-0.0327,-0.033,-0.0333,-0.037,-0.0379,-0.0406,-0.0398,-0.0375,-0.04,-0.04,-0.0453,-0.0459,-0.0468,-0.0506,-0.051,-0.0505,-0.0507,-0.0508,-0.0509,0,0,0,0,0,0,0,-0.0303,-0.0306,-0.0324,-0.0327,-0.0331,-0.0353,-0.0357,-0.0385,-0.0411,-0.0377,-0.038,-0.0384,-0.0455,-0.0465,-0.047,-0.0511,-0.0505,-0.0507,-0.0509,-0.051,-0.0575,-0.0575,0,0,0,0,0,0,-0.0292,-0.0304,-0.0323,-0.0326,-0.0319,-0.0353,-0.0358,-0.0358,-0.041,-0.0418,-0.0383,-0.0386,-0.0459,-0.0467,-0.0474,-0.0506,-0.0508,-0.0511,-0.0513,-0.0575,-0.0575,-0.0575,0,0,0,0,0,0,-0.0292,-0.0293,-0.0321,-0.0316,-0.032,-0.0352,-0.0352,-0.0359,-0.0369,-0.0415,-0.0424,-0.0387,-0.046,-0.0469,-0.0497,-0.0509,-0.0512,-0.0515,-0.0576,-0.0575,-0.0575,-0.0557,0,0,0,0,0,0,-0.0291,-0.0293,-0.0288,-0.0314,-0.032,-0.033,-0.0352,-0.0359,-0.037,-0.0374,-0.0421,-0.043,-0.0461,-0.0492,-0.05,-0.0514,-0.0517,-0.0576,-0.0576,-0.0575,-0.0558,-0.0557,-0.0555,0,0,0,0,0,-0.0289,-0.0283,-0.0287,-0.029,-0.0313,-0.033,-0.0335,-0.0361,-0.0369,-0.0372,-0.0403,-0.0428,-0.0497,-0.0495,-0.0504,-0.0518,-0.0576,-0.0576,-0.0575,-0.0559,-0.0557,-0.0555,0,0,0,0,0,0,-0.0267,-0.0287,-0.0293,-0.0291,-0.0307,-0.0337,-0.0342,-0.0355,-0.0381,-0.0386,-0.0427,-0.0438,-0.0466,-0.0489,-0.0485,-0.0534,-0.0541,-0.0542,-0.0525,-0.0523,-0.0522,-0.054,-0.052,0,0,0,0,0,-0.0258,-0.0262,-0.0281,-0.028,-0.0286,-0.031,-0.0319,-0.0335,-0.0361,-0.0373,-0.0405,-0.0439,-0.0471,-0.0494,-0.0521,-0.0548,-0.0552,-0.0562,-0.0561,-0.056,-0.0579,-0.0612,-0.0616,-0.0574,-0.0574,-0.0574,0,0,-0.0251,-0.0261,-0.0263,-0.0276,-0.0291,-0.0308,-0.0318,-0.0329,-0.035,-0.0379,-0.0412,-0.0432,-0.0474,-0.0506,-0.0521,-0.0529,-0.0558,-0.0559,-0.0558,-0.0579,-0.0613,-0.0617,-0.0621,-0.0574,-0.0574,-0.0574,0,0,-0.0246,-0.0243,-0.0251,-0.0263,-0.0281,-0.0297,-0.0298,-0.0323,-0.034,-0.0365,-0.0394,-0.0422,-0.0465,-0.0505,-0.053,-0.0536,-0.0544,-0.0537,-0.0556,-0.0587,-0.0592,-0.0596,-0.0537,-0.0536,-0.0544,-0.0544,-0.0544,0,-0.0238,-0.025,-0.0255,-0.0269,-0.0282,-0.0292,-0.0309,-0.0326,-0.0358,-0.0377,-0.0374,-0.0444,-0.0472,-0.053,-0.0534,-0.0537,-0.0525,-0.0559,-0.0587,-0.0591,-0.0596,-0.0536,-0.0535,-0.0543,-0.0543,-0.0543,-0.0543,0,-0.025,-0.0257,-0.0261,-0.0286,-0.0296,-0.0308,-0.0331,-0.0344,-0.0357,-0.0381,-0.0422,-0.0455,-0.0498,-0.0509,-0.0529,-0.0577,-0.0542,-0.0574,-0.0593,-0.0599,-0.0534,-0.0534,-0.0542,-0.0542,-0.0542,-0.0542,0,0,-0.0241,-0.0266,-0.0269,-0.0277,-0.0306,-0.0311,-0.0344,-0.0377,-0.0376,-0.0423,-0.043,-0.051,-0.0515,-0.0544,-0.0564,-0.0604,-0.0597,-0.0605,-0.0607,-0.0547,-0.0599,-0.0517,-0.0507,-0.0639,-0.064,-0.0642,-0.0515,0,-0.0253,-0.0274,-0.0291,-0.0309,-0.0319,-0.034,-0.0356,-0.0385,-0.0394,-0.0392,-0.0454,-0.0447,-0.0531,-0.0506,-0.0583,-0.0572,-0.0607,-0.0624,-0.0602,-0.06,-0.053,-0.0511,-0.0455,-0.0335,-0.0515,-0.0515,-0.0515,0,-0.0265,-0.0276,-0.0295,-0.0307,-0.0311,-0.032,-0.0328,-0.0339,-0.0358,-0.0353,-0.04,-0.0405,-0.0453,-0.0499,-0.0573,-0.0576,-0.0604,-0.0616,-0.0612,-0.0556,-0.0521,-0.0372,-0.0328,-0.0608,-0.0514,-0.0514,-0.0514,0,-0.0246,-0.0277,-0.0287,-0.0295,-0.0311,-0.0317,-0.0318,-0.0331,-0.0265,-0.0291,-0.019,-0.0336,-0.0244,-0.041,-0.0423,-0.05,-0.0451,-0.0554,-0.0516,-0.0505,-0.0467,-0.0451,-0.0702,-0.0637,-0.0637,-0.0637,-0.0638,0,-0.0245,-0.0245,-0.0271,-0.0268,-0.0241,-0.0278,-0.0213,-0.0233,-0.0159,0.0002,-0.0137,0.0024,-0.0212,-0.019,-0.0359,-0.0378,-0.0401,-0.0509,-0.0487,-0.0447,-0.0433,-0.0683,-0.0821,-0.0633,-0.0634,-0.0635,-0.0635,0,-0.0192,-0.0227,-0.0212,-0.023,-0.022,-0.0187,-0.0067,0.0039,0.0057,0.0288,0.0329,0.0363,0.0394,0.0189,0.0055,-0.0156,-0.0384,-0.0278,-0.0162,-0.0134,-0.0457,-0.0591,-0.0733,-0.0867,-0.028,-0.0277,-0.0275,0,-0.0154,-0.0154,-0.0142,-0.0077,-0.0066,0.0,0.012,0.0152,0.0332,0.056,0.0748,0.0832,0.0971,0.0786,0.0427,0.0148,-0.0157,-0.0021,-0.0224,-0.0462,-0.0597,-0.0706,-0.082,-0.0123,-0.0119,-0.0117,-0.0115,0,-0.0055,-0.0058,-0.0028,0.0118,0.0236,0.0387,0.056,0.0724,0.0873,0.1075,0.1408,0.1518,0.1387,0.1162,0.0757,0.0501,-0.0217,0.0024,-0.0289,-0.0553,-0.0623,-0.074,-0.0162,-0.0092,-0.0094,-0.0096,-0.0097,-0.0098,0.0061,0.0141,0.0229,0.0384,0.0536,0.0826,0.0991,0.1225,0.1533,0.1862,0.1921,0.2117,0.1708,0.1171,0.0796,0.0066,0.0014,-0.0231,-0.0374,-0.0463,-0.0629,0.0047,0.0164,0.0164,0.0163,0.0162,0.0162,0,0.0293,0.0401,0.0533,0.0765,0.1017,0.103,0.1362,0.1556,0.1942,0.2203,0.2436,0.2362,0.1817,0.116,0.0236,-0.0279,-0.0548,-0.0591,-0.0816,-0.0923,-0.037,-0.0409,-0.0331,-0.0331,-0.0331,-0.033,-0.033,-0.033,0.044,0.0665,0.0755,0.1205,0.136,0.1705,0.1891,0.2131,0.233,0.2638,0.2745,0.2794,0.2339,0.0686,-0.0515,-0.081,-0.1274,-0.1237,-0.1518,-0.1234,-0.1216,-0.1199,-0.1279,-0.1383,-0.1385,-0.2036,-0.2042,-0.2047]}],[{"header":{"parameterUnit":"m.s-1","parameterCategory":2,"la1":30.2991,"la2":30.254,"lo1":-89.0895,"lo2":-89.0444,"dy":0.0017,"dx":0.0017,"nx":28,"ny":28,"refTime":"2025-11-07T09:00:00:Z","depth":"2","parameterNumber":2,"parameterNumberName":"U-component_of_CURRENTS"},"data":[0,0,0,0,0,0,0,0,0,0,0,0,0,0,0,0,0,0,0,0,0,0,0,0,0,0,0,0,0,0,0,0,0,0,0,0,0,0,0,0,0,0,0,0,0,0,0,0,0,0,0,0,0,0,0,0,0,0,0.1827,0.1827,0,0.1842,0.1842,0.1843,0.1876,0.1876,0.1877,0.1877,0.1911,0.1911,0.1912,0,0,0,0,0,0,0,0,0,0,0,0,0,0.1805,0.1806,0.1827,0.1827,0.1827,0.1842,0.1842,0.1843,0.1875,0.1876,0.1877,0.1877,0.1911,0.1911,0.1912,0,0,0,0,0,0,0,0,0,0,0,0,0,0.1819,0.1806,0.1827,0.1844,0.1846,0.1842,0.1842,0.1843,0.1875,0.1876,0.1877,0.1878,0.1911,0.1911,0.1912,0.19,0,0,0.1914,0.1914,0,0,0,0,0,0,0,0,0.1818,0.182,0.1842,0.1843,0.1845,0.1856,0.1847,0.1862,0.1875,0.1866,0.1877,0.1878,0.1893,0.1895,0.1898,0.1902,0.1903,0.1914,0.1914,0.1915,0.1915,0,0,0,0,0,0,0,0.1817,0.1819,0.1835,0.1842,0.1843,0.1844,0.1847,0.185,0.1876,0.1867,0.1869,0.1868,0.1894,0.1897,0.1899,0.1904,0.1914,0.1914,0.1915,0.1915,0.1966,0.1967,0,0,0,0,0,0,0.1812,0.1818,0.1834,0.1835,0.1831,0.1843,0.1847,0.1853,0.1876,0.1879,0.1867,0.1869,0.1896,0.1898,0.19,0.1961,0.1915,0.1915,0.1915,0.1965,0.1967,0.1968,0,0,0,0,0,0,0.1812,0.1814,0.1833,0.1825,0.1828,0.1843,0.185,0.1853,0.1874,0.1876,0.188,0.1887,0.1897,0.19,0.1927,0.196,0.1915,0.1916,0.1964,0.1966,0.1967,0.2036,0,0,0,0,0,0,0.1811,0.1814,0.1831,0.1825,0.1828,0.1855,0.1849,0.1853,0.1871,0.1874,0.1894,0.1897,0.1898,0.1926,0.1928,0.196,0.1916,0.1963,0.1965,0.1967,0.2032,0.2039,0.2045,0,0,0,0,0,0.1811,0.1829,0.1832,0.1835,0.1847,0.1856,0.1858,0.1872,0.1871,0.1892,0.1902,0.1897,0.1939,0.1928,0.1929,0.1962,0.1962,0.1964,0.1966,0.2029,0.2038,0.2045,0,0,0,0,0,0,0.1821,0.1834,0.1837,0.1857,0.1866,0.1861,0.1879,0.188,0.1903,0.1906,0.1908,0.1913,0.1955,0.1941,0.1929,0.1981,0.195,0.1953,0.1997,0.2005,0.2012,0.2001,0.1917,0,0,0,0,0,0.1831,0.1849,0.1857,0.1869,0.188,0.1881,0.1889,0.1892,0.1901,0.1913,0.1933,0.1944,0.1961,0.197,0.1987,0.2006,0.2013,0.2027,0.2034,0.204,0.2032,0.2065,0.2074,0.1975,0.1975,0.1975,0,0,0.1828,0.1842,0.1848,0.1873,0.188,0.1901,0.189,0.1903,0.1924,0.1911,0.1962,0.1975,0.1973,0.201,0.2026,0.2004,0.2081,0.2043,0.2048,0.2036,0.2068,0.2078,0.2086,0.1976,0.1976,0.1976,0,0,0.183,0.1855,0.1874,0.1893,0.1912,0.1919,0.1928,0.1945,0.1965,0.1995,0.2002,0.2031,0.2054,0.2068,0.2071,0.2117,0.2122,0.2126,0.2144,0.2177,0.2186,0.2193,0.2255,0.2267,0.212,0.212,0.212,0,0.1829,0.1857,0.1879,0.1906,0.1923,0.1932,0.1954,0.1974,0.2,0.202,0.2022,0.2073,0.208,0.2115,0.2133,0.2134,0.2159,0.2117,0.2187,0.2194,0.22,0.2261,0.2274,0.2124,0.2123,0.2123,0.2123,0,0.1846,0.1876,0.1889,0.1933,0.1958,0.1976,0.2005,0.204,0.2061,0.2077,0.2131,0.2144,0.2168,0.2183,0.2168,0.2219,0.2228,0.2202,0.2169,0.2215,0.2276,0.2288,0.2129,0.2128,0.2127,0.2126,0,0,0.1818,0.1888,0.1894,0.1918,0.1975,0.1987,0.204,0.2083,0.211,0.2153,0.2192,0.2228,0.2236,0.2238,0.224,0.226,0.2343,0.2247,0.2247,0.2312,0.2444,0.2443,0.2456,0.233,0.2331,0.2333,0.2484,0,0.1824,0.1875,0.1913,0.1957,0.1988,0.2028,0.2071,0.2111,0.2151,0.2201,0.2225,0.2263,0.2257,0.2268,0.2295,0.233,0.237,0.2305,0.2384,0.2387,0.2383,0.2467,0.2272,0.2389,0.2495,0.2497,0.2499,0,0.1831,0.1868,0.1912,0.1973,0.1989,0.2014,0.2081,0.2118,0.2189,0.222,0.2269,0.2296,0.2354,0.2324,0.2424,0.2385,0.2418,0.2441,0.2446,0.2421,0.2407,0.2351,0.2406,0.2518,0.2517,0.2515,0.2514,0,0.1798,0.1865,0.1899,0.1921,0.1992,0.2013,0.2048,0.2118,0.2169,0.2231,0.2289,0.2342,0.2406,0.2435,0.252,0.2466,0.2638,0.2566,0.2605,0.2607,0.2442,0.2426,0.2629,0.2629,0.2629,0.2628,0.2628,0,0.1793,0.1818,0.1879,0.1896,0.193,0.1983,0.2029,0.2073,0.2159,0.2248,0.2292,0.2392,0.2437,0.2552,0.2564,0.2663,0.2688,0.2632,0.2647,0.2465,0.245,0.2541,0.2529,0.2634,0.2633,0.2632,0.2631,0,0.1751,0.1796,0.1832,0.1896,0.1915,0.1932,0.2024,0.2074,0.2154,0.2276,0.2309,0.2465,0.2602,0.2675,0.2767,0.2756,0.281,0.2837,0.2646,0.2634,0.2738,0.2728,0.2856,0.2857,0.2858,0.2859,0.2859,0,0.1734,0.1749,0.1814,0.1846,0.1872,0.1916,0.1965,0.2049,0.2129,0.2344,0.2418,0.2595,0.2696,0.2858,0.2872,0.2911,0.292,0.2756,0.2589,0.2761,0.2762,0.275,0.2738,0.2417,0.2414,0.2412,0.241,0,0.1702,0.1722,0.1757,0.182,0.1867,0.1923,0.2004,0.2055,0.22,0.2287,0.2453,0.2536,0.2746,0.2712,0.2809,0.2791,0.2714,0.2707,0.2954,0.2389,0.2359,0.2356,0.2357,0.2388,0.239,0.2392,0.2393,0.2394,0.1674,0.1691,0.1747,0.1801,0.1862,0.192,0.1915,0.2019,0.2087,0.2206,0.2384,0.2446,0.2549,0.2564,0.2538,0.2527,0.2669,0.2525,0.2527,0.2533,0.2454,0.2427,0.2457,0.246,0.2462,0.2464,0.2465,0,0.1643,0.1688,0.1739,0.1784,0.1806,0.1872,0.1942,0.1911,0.1923,0.21,0.2171,0.2084,0.2118,0.2221,0.2178,0.2197,0.2109,0.2104,0.1962,0.1989,0.2011,0.1898,0.1757,0.1755,0.1752,0.1749,0,0,0.1637,0.1664,0.1695,0.1714,0.1747,0.1728,0.1732,0.1701,0.1766,0.1761,0.1807,0.2018,0.2163,0.192,0.1919,0.1832,0.1875,0.1764,0.2344,0.2205,0.2223,0.2287,0.2149,0,0,0,0,0]},{"header":{"parameterUnit":"m.s-1","parameterCategory":2,"la1":30.2991,"la2":30.254,"lo1":-89.0895,"lo2":-89.0444,"dy":0.0017,"dx":0.0017,"nx":28,"ny":28,"refTime":"2025-11-07T09:00:00:Z","depth":"2","parameterNumber":3,"parameterNumberName":"V-component_of_CURRENTS"},"data":[0,0,0,0,0,0,0,0,0,0,0,0,0,0,0,0,0,0,0,0,0,0,0,0,0,0,0,0,0,0,0,0,0,0,0,0,0,0,0,0,0,0,0,0,0,0,0,0,0,0,0,0,0,0,0,0,0,0,-0.0162,-0.0163,0,-0.0214,-0.0214,-0.0215,-0.027,-0.0271,-0.0271,-0.0272,-0.0374,-0.0376,-0.0378,0,0,0,0,0,0,0,0,0,0,0,0,0,-0.0136,-0.0137,-0.0162,-0.0163,-0.0163,-0.0214,-0.0214,-0.0215,-0.027,-0.0271,-0.0271,-0.0272,-0.0373,-0.0376,-0.0378,0,0,0,0,0,0,0,0,0,0,0,0,0,-0.0165,-0.0137,-0.0162,-0.0196,-0.0199,-0.0213,-0.0214,-0.0216,-0.027,-0.0271,-0.0272,-0.0273,-0.0372,-0.0375,-0.0379,-0.0378,0,0,-0.0388,-0.039,0,0,0,0,0,0,0,0,-0.0163,-0.0166,-0.019,-0.0194,-0.0197,-0.0235,-0.0243,-0.0272,-0.0269,-0.0244,-0.0272,-0.0273,-0.0331,-0.0337,-0.0346,-0.0383,-0.0387,-0.0388,-0.039,-0.0392,-0.0393,0,0,0,0,0,0,0,-0.0161,-0.0164,-0.0184,-0.0191,-0.0195,-0.0217,-0.0222,-0.0249,-0.0283,-0.0247,-0.025,-0.0254,-0.0333,-0.0343,-0.0349,-0.0389,-0.0388,-0.0391,-0.0393,-0.0394,-0.0463,-0.0463,0,0,0,0,0,0,-0.015,-0.0162,-0.0182,-0.0185,-0.0181,-0.0216,-0.0222,-0.0223,-0.0282,-0.0291,-0.0253,-0.0256,-0.0337,-0.0345,-0.0353,-0.0403,-0.0392,-0.0395,-0.0396,-0.0463,-0.0463,-0.0462,0,0,0,0,0,0,-0.0149,-0.0151,-0.018,-0.0174,-0.0179,-0.0215,-0.0216,-0.0224,-0.0243,-0.0286,-0.0297,-0.0266,-0.0338,-0.0348,-0.0383,-0.0406,-0.0396,-0.0399,-0.0463,-0.0463,-0.0463,-0.0474,0,0,0,0,0,0,-0.0148,-0.015,-0.0159,-0.0173,-0.0179,-0.0193,-0.0216,-0.0224,-0.0242,-0.0247,-0.03,-0.031,-0.0339,-0.0378,-0.0386,-0.041,-0.0401,-0.0463,-0.0463,-0.0463,-0.0474,-0.0474,-0.0475,0,0,0,0,0,-0.0147,-0.0151,-0.0159,-0.0162,-0.0186,-0.0193,-0.0199,-0.0229,-0.0242,-0.025,-0.0284,-0.0309,-0.0383,-0.038,-0.039,-0.0416,-0.0463,-0.0463,-0.0463,-0.0474,-0.0474,-0.0475,0,0,0,0,0,0,-0.0139,-0.0157,-0.0166,-0.0175,-0.0185,-0.0202,-0.0216,-0.0228,-0.026,-0.0267,-0.0309,-0.0321,-0.0363,-0.0376,-0.0372,-0.0431,-0.0427,-0.0428,-0.0432,-0.0432,-0.0433,-0.0419,-0.0404,0,0,0,0,0,-0.014,-0.015,-0.0163,-0.0167,-0.0175,-0.0194,-0.0205,-0.0216,-0.0239,-0.0255,-0.0298,-0.0333,-0.0366,-0.0388,-0.0419,-0.0448,-0.0463,-0.0468,-0.0469,-0.0469,-0.0462,-0.0504,-0.0508,-0.0462,-0.0462,-0.0462,0,0,-0.0134,-0.0147,-0.0151,-0.0167,-0.018,-0.0186,-0.0204,-0.0212,-0.0224,-0.026,-0.0306,-0.034,-0.0372,-0.0412,-0.0431,-0.043,-0.049,-0.0469,-0.047,-0.0462,-0.0504,-0.0509,-0.0513,-0.0462,-0.0462,-0.0462,0,0,-0.0119,-0.0141,-0.0143,-0.0154,-0.0168,-0.0182,-0.0183,-0.0208,-0.0233,-0.0264,-0.0298,-0.034,-0.0393,-0.0426,-0.0445,-0.046,-0.0491,-0.0473,-0.0471,-0.0512,-0.0517,-0.0521,-0.0548,-0.0554,-0.0474,-0.0474,-0.0474,0,-0.0113,-0.0114,-0.0142,-0.0146,-0.0151,-0.0178,-0.0172,-0.0201,-0.0237,-0.0253,-0.028,-0.036,-0.0399,-0.0438,-0.0452,-0.0466,-0.0486,-0.0471,-0.0515,-0.0519,-0.0523,-0.055,-0.0557,-0.0475,-0.0475,-0.0474,-0.0474,0,-0.0095,-0.0101,-0.0102,-0.0119,-0.0131,-0.0127,-0.0161,-0.0186,-0.0221,-0.025,-0.0304,-0.0362,-0.0406,-0.0433,-0.0454,-0.05,-0.0504,-0.0513,-0.0516,-0.0529,-0.0555,-0.0562,-0.0475,-0.0475,-0.0475,-0.0475,0,0,-0.006,-0.0084,-0.0084,-0.0082,-0.0112,-0.0111,-0.014,-0.0164,-0.0178,-0.0246,-0.0272,-0.0353,-0.039,-0.0412,-0.0454,-0.0498,-0.0558,-0.0519,-0.0521,-0.0551,-0.0643,-0.0604,-0.0608,-0.0581,-0.0582,-0.0583,-0.0652,0,-0.0032,-0.0024,-0.0049,-0.0039,-0.0034,-0.007,-0.0092,-0.0123,-0.0168,-0.0211,-0.0281,-0.0328,-0.0381,-0.0408,-0.0464,-0.0529,-0.0577,-0.0538,-0.0621,-0.0623,-0.0592,-0.0615,-0.0582,-0.0636,-0.0659,-0.066,-0.0661,0,-0.0004,-0.0,0.0014,0.0011,0.0009,-0.0004,-0.0028,-0.0052,-0.0119,-0.0153,-0.0218,-0.0274,-0.0354,-0.0396,-0.0525,-0.0499,-0.0571,-0.0626,-0.063,-0.0591,-0.0597,-0.0626,-0.0648,-0.0673,-0.0672,-0.0671,-0.067,0,0.0046,0.0047,0.0063,0.0059,0.004,0.0032,0.0013,-0.0039,-0.0046,-0.0125,-0.0132,-0.0243,-0.0282,-0.0402,-0.0517,-0.0531,-0.0645,-0.0675,-0.0707,-0.0705,-0.0689,-0.0682,-0.0765,-0.0765,-0.0765,-0.0765,-0.0764,0,0.0089,0.0101,0.0082,0.0089,0.0105,0.007,0.007,0.0035,-0.0002,0.0014,-0.0105,-0.0101,-0.0285,-0.0367,-0.0498,-0.0611,-0.0633,-0.0706,-0.0722,-0.069,-0.0683,-0.0721,-0.0714,-0.0767,-0.0767,-0.0766,-0.0766,0,0.0131,0.0122,0.0141,0.0129,0.0125,0.0128,0.0119,0.0128,0.008,0.0099,0.0084,-0.0,-0.0099,-0.027,-0.0444,-0.0556,-0.0688,-0.0721,-0.066,-0.0667,-0.0732,-0.0726,-0.0783,-0.0783,-0.0782,-0.0781,-0.0781,0,0.015,0.0163,0.017,0.019,0.0179,0.0182,0.0196,0.0162,0.0189,0.0187,0.022,0.0134,0.011,-0.0138,-0.0362,-0.0583,-0.063,-0.0688,-0.0711,-0.0725,-0.0735,-0.073,-0.0724,-0.0704,-0.0703,-0.0702,-0.0701,0,0.0188,0.0185,0.0203,0.0242,0.0261,0.03,0.0321,0.0362,0.0359,0.039,0.0445,0.0425,0.0209,0.0007,-0.0295,-0.0446,-0.0658,-0.0675,-0.072,-0.0687,-0.0651,-0.066,-0.0658,-0.0694,-0.0695,-0.0695,-0.0696,-0.0696,0.0211,0.0233,0.0259,0.0294,0.0339,0.0417,0.046,0.052,0.059,0.0657,0.0636,0.0629,0.0362,0.0009,-0.0261,-0.0553,-0.0567,-0.0678,-0.0681,-0.0685,-0.0646,-0.0609,-0.0637,-0.0637,-0.0638,-0.0638,-0.0638,0,0.024,0.0268,0.0314,0.0364,0.0429,0.0447,0.055,0.061,0.0722,0.0806,0.0847,0.0656,0.0413,0.0115,-0.03,-0.056,-0.0604,-0.0637,-0.0646,-0.0651,-0.0657,-0.0618,-0.0601,-0.0601,-0.0601,-0.0602,0,0,0.0259,0.0303,0.0323,0.0423,0.0477,0.0581,0.0655,0.0761,0.0845,0.0941,0.096,0.09,0.0536,0.025,-0.0119,-0.0352,-0.0439,-0.0397,-0.0402,-0.0376,-0.0378,-0.0658,-0.06,0,0,0,0,0]}],[{"header":{"parameterUnit":"m.s-1","parameterCategory":2,"la1":30.2991,"la2":30.254,"lo1":-89.0895,"lo2":-89.0444,"dy":0.0017,"dx":0.0017,"nx":28,"ny":28,"refTime":"2025-11-07T09:00:00:Z","depth":"4","parameterNumber":2,"parameterNumberName":"U-component_of_CURRENTS"},"data":[0,0,0,0,0,0,0,0,0,0,0,0,0,0,0,0,0,0,0,0,0,0,0,0,0,0,0,0,0,0,0,0,0,0,0,0,0,0,0,0,0,0,0,0,0,0,0,0,0,0,0,0,0,0,0,0,0,0,0.1025,0.1026,0,0.1089,0.1089,0.109,0.1135,0.1136,0.1137,0.1137,0.1206,0.1207,0.1208,0,0,0,0,0,0,0,0,0,0,0,0,0,0.0933,0.0934,0.1025,0.1026,0.1027,0.1089,0.1089,0.109,0.1135,0.1136,0.1137,0.1138,0.1206,0.1207,0.1209,0,0,0,0,0,0,0,0,0,0,0,0,0,0.0978,0.0934,0.1025,0.106,0.1065,0.1089,0.1089,0.109,0.1135,0.1136,0.1137,0.1138,0.1205,0.1207,0.1209,0.1197,0,0,0.1214,0.1215,0,0,0,0,0,0,0,0,0.0976,0.0981,0.1054,0.1058,0.1063,0.1109,0.1082,0.1127,0.1135,0.1104,0.1138,0.1139,0.1176,0.118,0.1184,0.12,0.1203,0.1214,0.1215,0.1216,0.1216,0,0,0,0,0,0,0,0.0973,0.0979,0.1046,0.1055,0.1061,0.107,0.1077,0.109,0.113,0.1107,0.1111,0.1124,0.1178,0.1182,0.1186,0.1204,0.1214,0.1216,0.1217,0.1217,0.1301,0.1303,0,0,0,0,0,0,0.0972,0.0976,0.1044,0.1049,0.1026,0.1071,0.1079,0.109,0.113,0.1138,0.1123,0.1126,0.1179,0.1184,0.1188,0.1256,0.1216,0.1217,0.1218,0.13,0.1302,0.1303,0,0,0,0,0,0,0.097,0.0978,0.1042,0.1017,0.1026,0.1072,0.1083,0.109,0.1124,0.1143,0.1151,0.1154,0.118,0.1186,0.1227,0.1256,0.1218,0.122,0.1299,0.1301,0.1302,0.134,0,0,0,0,0,0,0.0967,0.0976,0.0993,0.1017,0.1028,0.1071,0.1083,0.1091,0.1131,0.1136,0.1171,0.1177,0.1181,0.1225,0.1229,0.1258,0.1221,0.1297,0.13,0.1302,0.1337,0.1343,0.1348,0,0,0,0,0,0.0963,0.0978,0.0993,0.1002,0.1046,0.1072,0.1078,0.1111,0.1131,0.1145,0.1176,0.1177,0.1243,0.1227,0.1232,0.1262,0.1296,0.1299,0.1302,0.1335,0.1342,0.1347,0,0,0,0,0,0,0.0951,0.0985,0.1002,0.1028,0.1057,0.1082,0.1104,0.1125,0.1159,0.1175,0.119,0.1198,0.1243,0.1247,0.123,0.1293,0.127,0.1274,0.1294,0.1301,0.1306,0.1316,0.1223,0,0,0,0,0,0.0954,0.0974,0.1007,0.1031,0.1047,0.108,0.11,0.1124,0.1154,0.1171,0.1197,0.1226,0.1251,0.1274,0.129,0.1325,0.1332,0.1348,0.1353,0.1358,0.137,0.1404,0.1413,0.1312,0.1312,0.1312,0,0,0.0957,0.0979,0.0993,0.103,0.1055,0.1082,0.1095,0.1133,0.1164,0.1172,0.1225,0.1243,0.1263,0.1302,0.1324,0.1316,0.1389,0.1361,0.1365,0.1375,0.1408,0.1417,0.1426,0.1314,0.1313,0.1313,0,0,0.0965,0.0993,0.1011,0.1036,0.1082,0.11,0.1117,0.1157,0.1187,0.1231,0.1249,0.1288,0.1325,0.1347,0.1362,0.1407,0.1411,0.1417,0.146,0.1492,0.1501,0.1508,0.1523,0.1532,0.1425,0.1425,0.1425,0,0.097,0.0997,0.1021,0.1047,0.1075,0.1111,0.114,0.117,0.1222,0.1251,0.1256,0.1331,0.1345,0.1402,0.1421,0.142,0.1436,0.1432,0.1499,0.1507,0.1514,0.1527,0.1536,0.1428,0.1427,0.1427,0.1427,0,0.0986,0.1018,0.1033,0.1076,0.1106,0.1137,0.1182,0.1222,0.1261,0.1291,0.1359,0.1384,0.1434,0.1443,0.1449,0.1514,0.1507,0.1495,0.1481,0.1526,0.1537,0.1546,0.1431,0.143,0.1429,0.1429,0,0,0.0966,0.1031,0.1039,0.1067,0.1126,0.1149,0.1208,0.1264,0.1311,0.1362,0.1422,0.1472,0.1499,0.1519,0.1536,0.1569,0.1627,0.1565,0.1566,0.1578,0.1698,0.163,0.1633,0.1634,0.1636,0.1637,0.1682,0,0.0974,0.1021,0.1055,0.1107,0.1136,0.119,0.1238,0.1298,0.135,0.1413,0.1463,0.1518,0.1525,0.1559,0.1598,0.163,0.1655,0.1616,0.1656,0.1656,0.1589,0.1643,0.1644,0.1689,0.1691,0.1692,0.1693,0,0.0973,0.1008,0.1059,0.1129,0.1148,0.1186,0.1274,0.1324,0.1416,0.146,0.1535,0.1571,0.1655,0.1634,0.1725,0.1707,0.171,0.1717,0.1719,0.1651,0.1606,0.1637,0.1709,0.1708,0.1707,0.1706,0.1705,0,0.0938,0.1008,0.1049,0.1074,0.1158,0.12,0.1252,0.1342,0.1399,0.1499,0.1551,0.1641,0.1703,0.174,0.1786,0.1762,0.1863,0.1822,0.1755,0.175,0.1778,0.177,0.1859,0.1859,0.1858,0.1858,0.1858,0,0.0919,0.0953,0.104,0.1063,0.112,0.1189,0.1264,0.1327,0.1431,0.1504,0.1582,0.1651,0.1737,0.1806,0.1816,0.1836,0.1893,0.1777,0.1766,0.1791,0.1784,0.1784,0.1775,0.186,0.186,0.1859,0.1859,0,0.0866,0.0926,0.0976,0.107,0.1105,0.1148,0.1268,0.1322,0.1427,0.1529,0.1567,0.1691,0.1786,0.185,0.1914,0.1873,0.1887,0.1864,0.1903,0.189,0.1736,0.1728,0.1786,0.1785,0.1783,0.1782,0.1781,0,0.0841,0.0863,0.0967,0.1008,0.1054,0.1135,0.1193,0.1307,0.1372,0.1545,0.1587,0.1717,0.179,0.1833,0.1896,0.1915,0.1884,0.1865,0.1784,0.175,0.1733,0.1728,0.1722,0.1778,0.1778,0.1777,0.1777,0,0.0791,0.0836,0.0882,0.0966,0.1032,0.1098,0.1194,0.123,0.1375,0.1481,0.158,0.1635,0.1738,0.1792,0.1829,0.1831,0.187,0.1848,0.1849,0.1773,0.1741,0.1724,0.1721,0.1772,0.1773,0.1773,0.1773,0,0.076,0.0779,0.0856,0.0918,0.1001,0.1052,0.11,0.1192,0.1269,0.1453,0.1486,0.1622,0.1734,0.175,0.1787,0.1797,0.1751,0.1671,0.168,0.1687,0.1636,0.158,0.1566,0,0,0,0,0,0.0729,0.0755,0.0809,0.088,0.0955,0.1003,0.1107,0.1161,0.1294,0.1335,0.141,0.15,0.1574,0.1636,0.1624,0.1731,0.1748,0.1707,0.1658,0.1742,0.1748,0.1698,0,0,0,0,0,0,0.0719,0.0767,0.079,0.0839,0.0875,0.0951,0.1009,0.109,0.1121,0.1259,0.1307,0.1414,0.1502,0.1573,0.1598,0.1617,0.1556,0.1791,0.1787,0.1739,0.1744,0.1749,0.17,0,0,0,0,0]},{"header":{"parameterUnit":"m.s-1","parameterCategory":2,"la1":30.2991,"la2":30.254,"lo1":-89.0895,"lo2":-89.0444,"dy":0.0017,"dx":0.0017,"nx":28,"ny":28,"refTime":"2025-11-07T09:00:00:Z","depth":"4","parameterNumber":3,"parameterNumberName":"V-component_of_CURRENTS"},"data":[0,0,0,0,0,0,0,0,0,0,0,0,0,0,0,0,0,0,0,0,0,0,0,0,0,0,0,0,0,0,0,0,0,0,0,0,0,0,0,0,0,0,0,0,0,0,0,0,0,0,0,0,0,0,0,0,0,0,0.0066,0.0065,0,0.001,0.001,0.0009,-0.0024,-0.0024,-0.0024,-0.0024,-0.008,-0.0082,-0.0083,0,0,0,0,0,0,0,0,0,0,0,0,0,0.0124,0.0123,0.0066,0.0065,0.0064,0.001,0.001,0.0009,-0.0024,-0.0024,-0.0024,-0.0024,-0.008,-0.0081,-0.0083,0,0,0,0,0,0,0,0,0,0,0,0,0,0.0087,0.0123,0.0066,0.0042,0.0039,0.001,0.001,0.0009,-0.0023,-0.0024,-0.0024,-0.0024,-0.0079,-0.0081,-0.0083,-0.0091,0,0,-0.009,-0.009,0,0,0,0,0,0,0,0,0.0089,0.0085,0.0046,0.0043,0.004,-0.0,0.0009,-0.0025,-0.0023,0.0001,-0.0024,-0.0024,-0.0054,-0.0058,-0.0067,-0.0094,-0.0096,-0.009,-0.0091,-0.0092,-0.0092,0,0,0,0,0,0,0,0.0091,0.0087,0.0044,0.0045,0.0042,0.0026,0.0021,0.0002,-0.0024,-0.0002,-0.0004,-0.0011,-0.0055,-0.0065,-0.0069,-0.0097,-0.009,-0.0091,-0.0093,-0.0093,-0.0141,-0.0141,0,0,0,0,0,0,0.0099,0.0089,0.0046,0.0042,0.0064,0.0025,0.002,0.0013,-0.0024,-0.003,-0.0011,-0.0012,-0.0062,-0.0066,-0.0071,-0.0063,-0.0092,-0.0094,-0.0095,-0.0141,-0.0141,-0.0141,0,0,0,0,0,0,0.01,0.0096,0.0048,0.0064,0.0057,0.0025,0.0018,0.0012,0.0001,-0.0031,-0.0037,-0.0015,-0.0062,-0.0068,-0.0087,-0.0066,-0.0095,-0.0096,-0.0141,-0.0141,-0.0141,-0.006,0,0,0,0,0,0,0.0102,0.0097,0.0097,0.0065,0.0057,0.0041,0.0018,0.0011,-0.0002,-0.0005,-0.0037,-0.0043,-0.0063,-0.0084,-0.0089,-0.007,-0.0098,-0.014,-0.0141,-0.0141,-0.0063,-0.0058,-0.0053,0,0,0,0,0,0.0105,0.0112,0.0098,0.0093,0.0058,0.0042,0.0037,0.0013,-0.0002,0.0001,-0.0028,-0.0042,-0.0088,-0.0086,-0.0092,-0.0072,-0.014,-0.0141,-0.0141,-0.0065,-0.0059,-0.0053,0,0,0,0,0,0,0.0137,0.0108,0.0092,0.0089,0.007,0.0037,0.0037,0.0015,-0.0005,-0.0009,-0.0043,-0.005,-0.0061,-0.0083,-0.008,-0.009,-0.0117,-0.0118,-0.0057,-0.0051,-0.0047,-0.0014,-0.01,0,0,0,0,0,0.0144,0.0142,0.011,0.0109,0.0101,0.0068,0.0058,0.004,0.0015,0.0006,-0.0019,-0.0047,-0.0066,-0.0072,-0.0097,-0.0098,-0.0125,-0.0092,-0.0087,-0.0083,-0.0062,-0.0087,-0.0081,-0.0141,-0.0141,-0.0141,0,0,0.0156,0.0139,0.0138,0.0116,0.0098,0.0104,0.0062,0.0052,0.0062,0.0003,0.0007,-0.0033,-0.0067,-0.007,-0.0076,-0.0083,-0.0086,-0.0083,-0.0078,-0.006,-0.0086,-0.008,-0.0075,-0.0141,-0.0141,-0.0141,0,0,0.019,0.0165,0.018,0.0169,0.0147,0.0129,0.0128,0.0096,0.0087,0.0077,0.0038,0.0012,-0.0018,-0.0033,-0.0045,-0.003,-0.0065,-0.0043,0.0021,-0.0003,0.0003,0.0007,-0.0036,-0.0036,-0.0031,-0.0031,-0.0031,0,0.0207,0.0218,0.0182,0.0196,0.0198,0.0146,0.0169,0.0155,0.0121,0.0122,0.009,0.0044,0.0005,0.0014,0.0015,-0.0014,-0.0042,0.0006,0.0007,0.0011,0.0014,-0.0032,-0.0032,-0.0027,-0.0028,-0.0028,-0.0028,0,0.0254,0.0263,0.0272,0.0276,0.0273,0.028,0.0257,0.0252,0.0226,0.0207,0.0195,0.0138,0.0114,0.0093,0.0059,0.0068,0.0034,0.0011,0.0,0.0026,-0.0025,-0.0028,-0.0022,-0.0023,-0.0024,-0.0025,0,0,0.0292,0.0305,0.0308,0.0325,0.0315,0.0317,0.034,0.0344,0.0354,0.0317,0.0329,0.0284,0.024,0.0222,0.0172,0.0152,0.0131,0.01,0.0097,0.0072,0.0066,0.0003,-0.0007,0.0111,0.0111,0.0112,0.0015,0,0.0341,0.0387,0.0383,0.0429,0.0449,0.0426,0.0451,0.0446,0.0421,0.0414,0.0367,0.0343,0.0295,0.0267,0.0249,0.0145,0.0132,0.0159,0.0033,0.0029,-0.0018,-0.0009,0.0113,0.0013,0.0013,0.0012,0.0012,0,0.0388,0.0413,0.047,0.0504,0.0512,0.0535,0.0555,0.0568,0.0551,0.0527,0.0507,0.045,0.0409,0.0356,0.025,0.0268,0.0188,0.0117,0.0111,0.0029,-0.0038,-0.0017,0.0007,0.0008,0.0008,0.0008,0.0009,0,0.0422,0.0473,0.0522,0.0532,0.0562,0.0591,0.0606,0.0604,0.0605,0.0589,0.0563,0.0526,0.0461,0.0392,0.0227,0.0242,0.0091,0.0089,-0.0031,-0.0038,0.0015,0.0011,0.0044,0.0044,0.0045,0.0045,0.0045,0,0.0464,0.05,0.0542,0.0564,0.0617,0.0631,0.0671,0.0673,0.0667,0.0655,0.0616,0.057,0.0464,0.0353,0.0249,0.008,0.0106,-0.0014,-0.0059,0.0045,0.0046,0.0011,0.0009,0.0041,0.0042,0.0043,0.0043,0,0.0472,0.0506,0.0555,0.0609,0.0628,0.0659,0.0693,0.0704,0.0703,0.0679,0.0667,0.058,0.0433,0.0308,0.0146,0.0072,-0.0063,-0.0123,-0.0026,-0.0066,-0.0172,-0.0169,-0.0234,-0.0236,-0.0239,-0.0241,-0.0243,0,0.0472,0.0502,0.057,0.0589,0.0612,0.066,0.068,0.071,0.0707,0.0666,0.0639,0.0512,0.0434,0.017,0.0044,-0.0144,-0.0167,-0.0223,-0.0154,-0.0159,-0.0197,-0.019,-0.0185,-0.0247,-0.0247,-0.0248,-0.0248,0,0.0457,0.0485,0.0519,0.0562,0.0595,0.0637,0.067,0.0676,0.0688,0.0688,0.06,0.0481,0.0305,0.014,-0.0029,-0.0156,-0.0173,-0.0248,-0.0242,-0.0178,-0.0176,-0.0209,-0.0201,-0.0257,-0.0256,-0.0255,-0.0254,0,0.0426,0.0439,0.0477,0.0511,0.0554,0.0586,0.0628,0.0627,0.0637,0.0615,0.0572,0.0422,0.0344,0.0127,-0.0028,-0.0165,-0.0171,-0.0175,-0.0173,-0.0165,-0.0116,-0.0102,-0.0193,0,0,0,0,0,0.0378,0.0383,0.0415,0.0457,0.0503,0.0537,0.0591,0.0631,0.0656,0.0595,0.0595,0.044,0.0218,0.0121,-0.0026,-0.0077,-0.0206,-0.0253,-0.0212,-0.0304,-0.0294,-0.0254,0,0,0,0,0,0,0.034,0.0361,0.0387,0.0397,0.0425,0.0476,0.0524,0.0558,0.0538,0.0549,0.0433,0.0403,0.0182,0.029,-0.0035,-0.0077,-0.0068,-0.0349,-0.0351,-0.0309,-0.03,-0.0293,-0.0248,0,0,0,0,0]}]]